+ View the NASA Portal
+ Center for Near-Earth Object Studies
IMPORTANT:
The SSD Announcement email list is now available. Major changes are coming in the near future, including possible hostname and/or URL changes. To be notified of such changes, subscribe to this email list.
Please visit
this page
for more details.
Don't show this message again
JPL Small-Body Database Browser
Search:
[
help
]
312035 (2007 RL153)
Classification:
Main-belt Asteroid
SPK-ID:
2312035
[
Ephemeris
|
Orbit Diagram
|
Orbital Elements
|
Mission Design
|
Physical Parameters
|
Discovery Circumstances
|
Close-Approach Data
]
[ show orbit diagram ]
Orbital Elements at Epoch 2458600.5 (2019-Apr-27.0) TDB
Reference:
JPL 10
(heliocentric ecliptic J2000)
Element
Value
Uncertainty (1-sigma)
Units
e
.1437223623441157
6.5416e-08
a
2.19578459709142
1.7661e-08
au
q
1.880201247598619
1.5028e-07
au
i
3.766737487536082
6.9124e-06
deg
node
315.0838605851071
8.6655e-05
deg
peri
288.5085227066422
9.0646e-05
deg
M
293.2363702928191
2.8718e-05
deg
t
p
2458820.904505074482
(2019-Dec-03.40450507)
9.5961e-05
TDB
period
1188.455783108501
3.25
1.4338e-05
3.926e-08
d
yr
n
.3029140882788179
3.6545e-09
deg/d
Q
2.511367946584221
2.0199e-08
au
Orbit Determination Parameters
# obs. used (total)
145
data-arc span
6296 days (17.24 yr)
first obs. used
2001-11-14
last obs. used
2019-02-09
planetary ephem.
DE431
SB-pert. ephem.
SB431-N16
condition code
0
norm. resid. RMS
.57514
source
ORB
producer
Otto Matic
solution date
2019-Jul-14 09:44:14
Additional Information
Earth MOID
= .871055 au
Jupiter MOID
= 2.5172 au
T_jup
= 3.653
[ show covariance matrix ]
[
Ephemeris
|
Orbit Diagram
|
Orbital Elements
|
Mission Design
|
Physical Parameters
|
Discovery Circumstances
|
Close-Approach Data
]
Physical Parameter Table
Parameter
Symbol
Value
Units
Sigma
Reference
Notes
absolute magnitude
H
17.9
n/a
MPO423175
312035 (2007 RL153)
Discovered 2007-Sep-10 by Spacewatch at Kitt Peak
Reference:
20120109/Numbers.arc
Last Updated:
2012-01-11
[ show close-approach data ]
Alternate Designations
2007 RL153
= 2006 CX12
[
Ephemeris
|
Orbit Diagram
|
Orbital Elements
|
Mission Design
|
Physical Parameters
|
Discovery Circumstances
|
Close-Approach Data
]
2019-Dec-14 16:04 UT
(server date/time)
Site Manager:
Ryan S. Park
Webmaster
:
Alan B. Chamberlin